Overall — Coyote Run - Mini
Saturday 31 August 2024 · 60 finishers across every class · 5 laps for the winner
| Pos | No. | Rider | Class | Laps | Time | Behind | Int | Pace |
|---|---|---|---|---|---|---|---|---|
| 1 | #94A | MCCULLOUGH, RYLAND | SM 14-15 | 5 | 1:17:27 | — | 0:00 | 15:29 |
| 2 | #47A | HARRISON, EVAN | SM 14-15 | 5 | 1:18:30 | +1:03 | 1:03 | 15:42 |
| 3 | #19A | CAWLEY, MASON | SM 14-15 | 5 | 1:19:11 | +1:44 | 0:41 | 15:50 |
| 4 | #42B | LACY, JACK | SM 12-13 | 5 | 1:21:30 | +4:03 | 2:19 | 16:18 |
| 5 | #99A | CASH, CARSON | SM 14-15 | 5 | 1:23:02 | +5:35 | 1:32 | 16:36 |
| 6 | #21C | WIGGINS, MADDIX | MINI 12-13 | 5 | 1:23:45 | +6:18 | 0:43 | 16:45 |
| 7 | #36A | FULCHER, THOMAS | SM 14-15 | 5 | 1:24:01 | +6:34 | 0:16 | 16:48 |
| 8 | #18A | EDMONDSON, TUCKER | SM 14-15 | 5 | 1:24:47 | +7:20 | 0:46 | 16:57 |
| 9 | #25B | HERTZLER, NOAH | SM 12-13 | 5 | 1:26:58 | +9:31 | 2:11 | 17:23 |
| 10 | #30A | OLEARY, ASHTON | SM 14-15 | 5 | 1:27:45 | +10:18 | 0:47 | 17:33 |
| 11 | #24C | OLEARY, NOLAN | MINI 12-13 | 5 | 1:28:05 | +10:38 | 0:20 | 17:37 |
| 12 | #51B | RICE, DANE | SM 12-13 | 5 | 1:28:43 | +11:16 | 0:38 | 17:44 |
| 13 | #12D | BURKHOLDER, BRADLEY | MINI 9-11 | 5 | 1:29:20 | +11:53 | 0:37 | 17:52 |
| 14 | #14B | MOUNTS, RILEY | SM 12-13 | 5 | 1:29:20 | +11:53 | 0:00 | 17:52 |
| 15 | #42C | COLLINS, JAXON | MINI 12-13 | 5 | 1:29:26 | +11:59 | 0:06 | 17:53 |
| 16 | #42A | SCHLICKENMEYER, SEAN | SM 14-15 | 5 | 1:30:07 | +12:40 | 0:41 | 18:01 |
| 17 | #31A | MOUNTS, HUNTER | SM 14-15 | 5 | 1:31:01 | +13:34 | 0:54 | 18:12 |
| 18 | #44B | GEARHART, CADENCE | SM 12-13 | 5 | 1:31:55 | +14:28 | 0:54 | 18:23 |
| 19 | #22B | BAKER, COHEN | SM 12-13 | 5 | 1:32:05 | +14:38 | 0:10 | 18:25 |
| 20 | #52B | FOUTZ, KELLEN | SM 12-13 | 5 | 1:32:20 | +14:53 | 0:15 | 18:28 |
| 21 | #25C | TORRES, TRISTIN | MINI 12-13 | 5 | 1:32:23 | +14:56 | 0:03 | 18:28 |
| 22 | #4C | KERN, QUENTIN | MINI 12-13 | 5 | 1:36:33 | +19:06 | 4:10 | 19:18 |
| 23 | #21K | RAZOR, JAMES | MINI 9-11K | 4 | 1:19:29 | 1 lap | 0:00 | 19:52 |
| 24 | #29C | NALLS, COLTON | MINI 12-13 | 4 | 1:20:05 | 1 lap | 0:36 | 20:01 |
| 25 | #50C | JOHNSON, LUCAS | MINI 12-13 | 4 | 1:20:40 | 1 lap | 0:35 | 20:10 |
| 26 | #1K | DOMAN, HAYDEN | MINI 9-11K | 4 | 1:24:27 | 1 lap | 3:47 | 21:06 |
| 27 | #51K | RICE, HOLTON | MINI 9-11K | 4 | 1:25:39 | 1 lap | 1:12 | 21:24 |
| 28 | #12A | SHANNON, PARKER | SM 14-15 | 4 | 1:26:00 | 1 lap | 0:21 | 21:30 |
| 29 | #5C | MARKHAM, KASEN | MINI 12-13 | 4 | 1:27:19 | 1 lap | 1:19 | 21:49 |
| 30 | #26D | LILLY, WYATT | MINI 9-11 | 4 | 1:27:32 | 1 lap | 0:13 | 21:53 |
| 31 | #45K | SMITH, BOWEN | MINI 9-11K | 4 | 1:31:40 | 1 lap | 4:08 | 22:55 |
| 32 | #69D | LILLY, COLE | MINI 9-11 | 4 | 1:32:45 | 1 lap | 1:05 | 23:11 |
| 33 | #2E | HARDMAN, SAVANNAH | SM WOMEN | 4 | 1:35:34 | 1 lap | 2:49 | 23:53 |
| 34 | #35D | SULLINS, SAMMY | MINI 9-11 | 4 | 1:36:36 | 1 lap | 1:02 | 24:09 |
| 35 | #11A | SENTERS, ZEKE | SM 14-15 | 4 | 1:43:13 | 1 lap | 6:37 | 25:48 |
| 36 | #98C | SNODGRASS, LUKE | MINI 12-13 | 4 | 1:46:57 | 1 lap | 3:44 | 26:44 |
| 37 | #11B | TYREE, JESSE | SM 12-13 | 4 | 1:53:06 | 1 lap | 6:09 | 28:16 |
| 38 | #5B | BAKKEN, DASH | SM 12-13 | 4 | 1:53:08 | 1 lap | 0:02 | 28:17 |
| 39 | #96D | MARKHAM, GUNNER | MINI 9-11 | 3 | 1:10:03 | 2 laps | 0:00 | 23:21 |
| 40 | #21A | COUVILLION, BRAIDYN | SM 14-15 | 3 | 1:16:00 | 2 laps | 5:57 | 25:20 |
| 41 | #55D | KUEBLER, CADEN | MINI 9-11 | 3 | 1:16:56 | 2 laps | 0:56 | 25:38 |
| 42 | #8K | MUTER, MAX | MINI 9-11K | 3 | 1:17:29 | 2 laps | 0:33 | 25:49 |
| 43 | #31B | GRAHAM, ZANE | SM 12-13 | 3 | 1:18:10 | 2 laps | 0:41 | 26:03 |
| 44 | #33C | LILLY, RYDER | MINI 12-13 | 3 | 1:19:52 | 2 laps | 1:42 | 26:37 |
| 45 | #24E | WINGO, BELLA | SM WOMEN | 3 | 1:25:00 | 2 laps | 5:08 | 28:20 |
| 46 | #30C | FAIN, JACKSON | MINI 12-13 | 3 | 1:26:22 | 2 laps | 1:22 | 28:47 |
| 47 | #40K | WINN, ADDISON | MINI 9-11K | 3 | 1:29:07 | 2 laps | 2:45 | 29:42 |
| 48 | #10K | LAMB, BRANTLEY | MINI 9-11K | 3 | 1:34:44 | 2 laps | 5:37 | 31:34 |
| 49 | #10E | PANCAKE, LILLIAN | SM WOMEN | 3 | 1:35:43 | 2 laps | 0:59 | 31:54 |
| 50 | #52A | REYNOLDS, LUCAS | SM 14-15 | 3 | 1:36:12 | 2 laps | 0:29 | 32:04 |
| 51 | #8E | PANCAKE, DELILAH | SM WOMEN | 3 | 1:40:39 | 2 laps | 4:27 | 33:33 |
| 52 | #21D | PERRY, DYLAN | MINI 9-11 | 3 | 1:41:34 | 2 laps | 0:55 | 33:51 |
| 53 | #2K | MEAD, RYLAN | MINI 9-11K | 3 | 1:47:39 | 2 laps | 6:05 | 35:53 |
| 54 | #13E | NICHOLS, ELLA | SM WOMEN | 2 | 1:11:17 | 3 laps | 0:00 | 35:38 |
| 55 | #42D | SMITH, HUNTER | MINI 9-11 | 2 | 1:12:13 | 3 laps | 0:56 | 36:06 |
| 56 | #22K | BAKER, CAMDEN | MINI 9-11K | 2 | 1:29:52 | 3 laps | 17:39 | 44:56 |
| 57 | #74K | LOVE, CONNER | MINI 9-11K | 2 | 1:38:15 | 3 laps | 8:23 | 49:07 |
| 58 | #99B | RAFFERTY, LUKE | SM 12-13 | 2 | 1:39:28 | 3 laps | 1:13 | 49:44 |
| 59 | #77K | LAMB, BRYSON | MINI 9-11K | 2 | 1:54:50 | 3 laps | 15:22 | 57:25 |
| 60 | #67E | BONANNO, ANGELINA | SM WOMEN | 1 | 44:59 | 4 laps | 0:00 | 44:59 |
Ranked the way the series ranks: most laps first, then least time. Behind is the deficit to the winner and is only shown where the lap count matches, because elapsed time says nothing across different lap counts — a rider a lap down shows the laps instead. Int is the gap to the rider immediately ahead.